Dewpoint
65 66 65 64 65 65 65 65 65 65 65 66 66 64 64 63 62 62 61 60 60 60 60 60 60 60 59 59 59 59 59 61 61 61 63 64 65 67 68 67 67 66 64 63 62 63 63 63 64 62 62 61 60 60 60 60 59 60 61 64 65 64 63 61 61 60 60 60 60 60 59 59 59 59 59 58 58 58 58 58 57 57 57 57 56
64 65 65 64 65 64 65 65 65 65 65 65 66 64 64 63 62 61 60 60 59 60 61 60 59 60 60 59 59 59 60 60 61 61 61 63 64 66 67 67 67 67 66 64 63 64 63 63 64 63 62 62 61 60 60 60 59 59 60 63 65 64 63 62 61 60 60 60 60 59 59 59 59 59 58 58 58 58 57 57 57 57 56 56 56
65 64 65 65 65 65 65 66 65 65 66 65 66 65 64 63 62 61 61 59 60 60 61 59 59 58 59 58 59 58 60 60 59 61 61 61 62 65 66 68 67 68 67 66 65 64 64 64 64 64 63 61 61 61 60 60 60 59 60 66 66 64 64 63 62 61 61 60 60 60 59 59 59 59 59 58 58 58 57 56 56 57 57 56 56
64 65 64 65 65 65 65 66 65 66 66 66 65 66 65 63 63 62 63 62 61 60 62 60 59 58 58 58 59 59 58 60 58 60 61 61 62 63 65 66 68 68 68 67 67 66 64 64 64 64 64 62 62 61 60 61 61 59 60 66 66 65 64 64 63 62 62 61 61 60 60 60 59 59 58 58 58 57 57 57 57 57 57 56 56
64 65 64 64 63 64 66 65 66 65 64 65 66 65 64 63 61 62 61 61 60 60 62 61 60 61 60 60 60 60 60 58 59 60 62 61 61 62 64 64 66 67 67 68 68 67 66 66 65 64 64 63 63 62 61 61 61 60 60 64 65 65 65 65 64 63 62 61 61 60 60 60 59 59 58 58 58 58 57 56 57 57 57 56 56
65 64 64 64 64 64 64 64 66 65 64 65 64 65 64 63 61 60 62 59 60 61 61 61 62 62 62 61 62 62 61 60 60 60 61 61 62 62 63 63 64 65 66 68 68 67 67 67 65 65 65 64 63 63 63 62 61 61 60 61 65 65 64 65 65 64 62 62 61 61 60 60 60 60 59 58 58 57 57 57 57 57 56 56 56
65 64 65 65 64 63 63 64 66 65 64 64 64 65 64 63 63 61 60 60 61 63 62 62 62 62 62 62 62 62 62 61 61 60 59 61 63 63 62 63 63 64 65 66 67 67 67 67 68 66 65 64 64 63 63 63 62 62 61 61 65 64 63 63 65 64 64 63 62 62 61 61 60 61 59 58 58 58 57 57 56 56 56 55 55
65 66 65 65 65 64 64 65 65 65 65 64 64 63 63 64 64 63 60 60 61 62 62 61 62 62 62 62 62 62 61 62 61 61 60 60 60 63 63 62 62 62 64 65 66 66 66 67 67 67 67 66 65 64 64 63 63 62 63 62 62 64 64 63 64 65 65 64 63 62 61 61 60 61 60 59 58 58 58 57 57 56 56 55 55
64 66 66 65 65 64 64 65 65 65 64 63 63 64 63 64 63 63 61 60 61 62 62 62 62 62 62 62 62 62 62 62 61 62 61 60 60 59 60 63 63 65 63 63 64 65 66 66 67 67 67 67 66 65 65 64 64 63 63 63 62 62 63 63 64 64 65 65 64 63 62 61 60 60 60 60 59 58 58 58 58 56 56 56 55
64 64 65 65 64 63 63 63 65 65 63 62 62 63 63 64 63 63 63 62 62 62 61 61 63 63 63 63 62 63 63 62 62 63 62 60 60 60 59 59 60 62 63 62 62 63 65 66 67 67 67 66 66 67 65 65 65 64 64 65 64 62 63 63 64 64 64 65 65 64 62 62 61 60 60 60 60 59 58 58 58 57 56 56 55
64 64 65 65 64 63 63 63 64 63 63 61 62 63 63 63 63 62 62 63 62 63 62 61 61 62 63 63 63 62 62 63 63 61 61 61 61 61 59 60 60 60 61 63 62 62 62 64 65 66 66 66 66 67 66 66 65 65 64 65 64 64 63 63 64 64 64 64 65 64 63 63 62 61 60 60 60 60 59 59 58 58 57 57 56
64 64 64 64 64 63 63 64 64 64 62 62 61 61 61 61 61 62 62 63 62 62 61 61 60 61 61 61 62 63 63 62 61 61 61 61 61 61 61 61 60 60 61 61 61 62 63 62 64 65 65 66 66 66 67 66 66 67 65 65 65 65 64 64 64 64 64 64 64 64 64 63 62 61 61 60 61 60 60 59 59 58 58 57 56
64 63 64 66 64 63 63 63 63 63 63 61 61 62 62 61 61 61 61 61 61 61 61 61 60 59 60 60 60 62 62 62 60 61 62 61 60 59 60 61 60 60 60 61 61 63 63 64 62 63 64 64 66 66 65 65 65 66 67 66 65 65 65 65 65 65 64 63 64 64 65 64 63 62 62 61 61 61 60 60 59 59 58 57 57
60 62 64 64 64 63 63 63 63 63 63 62 62 63 62 62 61 60 61 59 59 61 61 60 57 57 57 56 57 59 62 60 59 59 62 62 60 59 61 60 59 58 62 60 61 61 61 64 65 63 63 63 64 65 66 66 65 66 67 67 66 66 65 65 66 66 65 64 63 64 65 65 63 63 63 62 62 61 61 60 60 59 59 58 58
54 61 62 63 63 63 63 63 62 63 62 62 62 61 62 61 60 60 59 60 59 61 60 59 57 58 56 54 52 52 55 57 60 60 62 62 62 61 59 60 58 57 58 60 61 62 61 60 62 62 63 63 63 63 64 65 65 65 66 66 67 67 67 66 66 67 66 65 64 64 65 65 64 64 63 63 62 62 61 61 60 60 59 59 58
55 53 54 58 61 62 62 61 61 61 61 61 61 61 61 61 61 60 60 57 58 59 61 60 60 56 52 52 53 52 50 52 56 59 62 61 60 60 62 60 58 56 59 60 61 62 62 62 61 62 62 62 63 63 63 63 64 65 65 64 65 67 67 67 65 66 67 66 65 64 64 65 65 64 64 63 63 62 62 61 61 60 60 59 59
55 56 57 56 57 59 60 61 61 61 61 61 61 61 61 61 61 60 59 58 57 59 60 61 60 60 57 53 51 49 50 54 55 56 59 60 61 60 60 61 59 59 60 61 62 63 64 65 64 63 63 63 62 64 63 63 62 64 64 64 65 66 66 68 68 66 65 67 67 66 65 65 66 65 64 64 64 63 63 62 61 61 60 60 60
54 54 54 55 54 54 54 54 56 57 60 60 61 61 61 61 61 61 60 60 58 58 57 59 60 59 60 58 55 53 53 56 54 51 57 59 60 61 61 62 61 62 62 61 59 61 64 62 63 64 64 64 63 63 63 64 65 63 63 63 62 64 64 65 68 68 67 65 66 67 66 65 66 65 65 64 64 64 63 63 62 61 61 61 61
52 51 52 53 50 50 53 53 54 56 57 55 55 55 56 59 61 59 60 59 59 57 57 57 59 58 59 59 59 59 59 55 52 54 50 54 57 57 58 61 61 61 61 60 59 58 61 63 63 64 64 64 64 64 63 63 63 63 64 63 62 60 60 60 64 67 68 67 66 66 67 66 66 65 65 65 64 64 64 63 63 62 62 61 61
50 49 50 51 48 47 47 50 52 53 55 54 55 56 56 57 57 57 58 59 58 57 56 56 56 55 58 57 57 59 59 58 57 55 52 51 52 57 60 61 59 59 59 56 57 60 58 56 61 64 64 63 64 64 64 64 63 62 61 60 59 59 59 59 59 59 64 68 68 66 66 67 67 65 65 65 64 64 64 64 63 63 62 62 62
48 48 47 49 53 50 47 46 49 52 53 52 54 55 55 55 55 55 53 53 56 57 57 56 56 55 56 56 57 57 57 57 57 56 54 51 51 52 54 60 60 60 60 59 58 58 55 54 58 60 62 63 63 63 63 63 64 64 63 60 59 58 58 58 56 56 56 62 66 68 67 66 66 67 66 65 65 64 64 64 64 63 63 63 62
51 51 51 51 50 49 50 48 48 52 53 52 53 51 51 51 53 53 52 52 52 52 53 52 50 50 55 57 55 55 55 55 56 56 55 53 50 50 46 47 47 54 59 59 59 58 57 56 56 55 56 60 62 62 62 63 63 63 62 60 59 58 57 57 54 55 56 57 61 65 67 68 67 66 67 66 66 65 65 65 65 64 64 63 63
52 51 49 50 51 52 49 48 51 54 51 48 49 50 51 50 51 51 50 49 49 49 49 50 49 48 47 49 50 50 49 49 47 49 48 47 46 46 44 42 41 42 47 56 59 58 56 56 56 55 56 57 59 61 62 62 62 61 60 59 59 58 57 56 53 53 55 58 60 63 65 66 67 68 67 67 66 66 66 66 66 65 65 64 64
50 50 51 52 52 52 53 51 52 51 50 51 52 52 53 51 50 50 50 50 50 49 47 46 47 47 46 47 48 48 47 47 49 48 48 46 46 45 45 43 44 42 43 45 43 44 49 52 53 53 53 53 54 55 56 60 61 61 60 59 59 57 56 55 53 53 52 55 58 60 64 66 66 67 68 67 66 66 66 66 66 66 65 65 65
51 50 50 51 52 50 50 49 48 48 48 50 50 49 49 50 50 49 49 49 49 48 47 47 48 46 46 47 45 46 48 48 48 47 48 48 47 45 45 43 42 44 43 43 42 40 41 42 43 46 47 47 49 50 51 59 61 60 60 60 58 57 56 55 54 53 52 52 54 58 61 64 66 67 67 68 67 66 66 66 63 60 61 62 63
51 50 51 53 53 52 52 52 52 53 52 51 49 48 49 49 49 50 50 50 50 49 48 47 46 46 46 43 43 45 46 46 47 47 46 46 45 45 44 45 45 43 43 42 42 40 41 41 41 44 46 47 48 50 50 55 60 59 59 60 59 56 55 55 54 52 51 50 50 54 57 59 62 64 66 66 66 64 63 60 59 58 58 58 58
51 52 53 53 52 51 51 51 50 49 51 50 52 51 51 50 52 51 50 49 50 50 48 47 46 44 45 48 47 45 45 44 48 47 47 47 47 46 45 43 43 44 43 42 43 42 42 42 42 42 43 46 47 49 48 54 60 57 56 59 61 56 54 54 53 53 51 51 50 50 51 53 54 56 58 59 59 58 59 58 59 57 57 57 57
52 52 53 53 51 51 52 51 51 50 50 50 49 49 48 48 49 48 48 51 48 49 49 49 47 47 47 48 45 46 45 48 47 47 47 48 48 47 46 45 42 41 43 43 43 43 44 42 43 43 42 44 46 48 50 58 61 57 58 61 62 60 57 55 53 53 52 51 50 49 49 50 50 51 52 54 56 57 58 59 58 56 56 57 57
52 52 54 52 51 50 51 50 50 50 49 51 51 49 49 50 50 48 48 51 51 50 49 48 48 48 47 48 48 44 45 49 46 48 49 48 48 47 47 44 45 42 41 41 42 42 43 43 42 43 42 42 44 46 46 48 56 57 52 57 58 56 55 52 52 52 52 51 50 50 49 49 50 50 52 53 55 56 56 55 56 55 56 56 56
51 53 54 52 51 55 51 50 50 51 50 51 49 50 51 49 50 51 51 48 48 49 50 49 47 48 47 45 47 43 47 47 46 47 49 48 47 48 47 46 46 43 43 41 42 44 44 44 44 42 40 40 41 44 44 44 49 46 47 48 50 50 49 49 49 50 51 51 50 50 49 49 50 51 52 52 53 54 54 53 53 54 54 55 55
51 53 53 52 52 52 51 51 51 50 51 50 49 49 49 48 49 49 50 49 48 49 48 48 48 46 45 46 47 48 48 48 49 50 49 48 49 44 45 45 46 44 42 43 40 44 46 42 44 43 40 40 40 42 44 44 46 47 47 48 45 48 49 47 48 50 50 51 50 50 50 49 49 49 50 52 53 53 53 54 54 53 54 54 54
51 53 53 52 52 53 52 51 51 51 50 50 49 48 49 47 49 48 48 49 49 47 45 46 47 48 43 44 44 43 44 43 44 47 47 49 45 42 44 44 44 45 43 42 41 41 45 43 42 41 41 42 41 41 41 42 43 47 42 42 44 48 45 45 46 47 48 49 49 49 50 50 49 49 49 49 49 51 51 52 53 53 53 52 53
51 52 53 53 52 53 52 52 51 51 50 50 50 48 50 47 49 47 47 49 48 47 46 44 45 47 45 44 45 45 44 43 45 43 42 43 46 46 46 45 44 45 43 41 40 41 42 46 44 42 43 43 41 41 40 40 40 41 43 41 43 44 45 45 45 44 44 44 45 46 47 48 48 48 48 48 48 49 50 50 51 52 51 50 50
52 52 53 53 53 53 53 52 51 51 50 50 50 49 50 47 47 50 47 47 48 45 45 43 44 47 45 44 44 45 44 42 44 40 41 41 37 37 41 45 43 44 47 43 40 39 38 43 43 44 43 44 43 41 39 39 40 41 39 39 39 40 39 41 40 44 44 44 44 43 44 45 46 47 47 47 47 48 49 49 48 48 49 49 49
55 52 53 53 53 52 53 52 52 51 50 50 49 50 49 48 45 49 47 45 46 46 45 43 44 44 42 41 44 45 46 40 43 44 45 43 41 39 41 41 40 40 41 42 41 40 41 42 44 43 43 44 40 37 37 39 40 39 38 37 37 38 38 39 40 42 42 42 42 43 43 44 44 45 46 47 47 47 47 48 48 48 47 48 48
57 57 53 53 53 52 52 53 52 51 50 50 49 50 49 50 47 48 47 44 45 48 46 44 45 44 43 44 44 46 45 43 44 44 45 44 43 42 40 40 39 40 42 42 41 40 42 39 42 38 39 39 39 37 36 37 36 36 36 36 37 37 37 37 38 38 39 42 43 44 46 46 46 45 45 46 47 47 47 47 48 47 47 47 47
58 58 57 55 53 53 52 52 52 52 51 50 49 49 49 50 48 48 47 45 46 47 45 44 47 45 44 43 44 45 44 43 44 43 43 42 42 43 41 41 39 41 41 42 41 40 39 38 39 40 40 37 37 37 36 36 36 36 36 36 37 38 40 42 42 41 44 43 43 44 45 45 46 46 46 46 47 47 47 47 47 47 48 48 48
56 56 57 56 55 54 54 53 52 52 51 50 50 49 49 49 49 48 47 46 47 47 45 45 45 46 44 44 45 45 43 42 42 44 42 43 44 41 39 37 35 37 37 37 37 37 36 36 37 38 38 38 38 39 38 38 38 37 36 36 38 39 40 41 41 42 43 40 44 44 44 43 44 46 47 47 47 46 46 47 47 48 48 47 47
57 56 56 56 56 56 55 55 53 52 52 51 50 49 49 49 49 48 47 46 46 46 46 46 45 43 44 45 44 44 43 43 43 42 43 40 41 38 38 36 36 36 36 36 35 34 34 33 34 36 36 37 38 36 36 36 36 36 37 38 38 38 40 40 40 40 41 43 42 41 42 42 44 45 46 46 47 48 48 47 47 48 48 47 47
56 56 56 55 56 55 56 56 56 53 52 51 50 50 49 48 49 48 48 46 47 46 47 46 45 43 43 44 43 44 43 43 41 40 38 36 37 32 35 38 37 36 35 35 33 31 31 31 30 30 32 33 33 34 34 35 35 35 37 39 38 39 39 40 40 41 42 42 42 43 43 44 44 45 45 47 49 48 48 48 48 48 48 47 46
56 56 55 55 55 55 56 57 56 54 53 53 52 51 50 48 48 48 48 47 47 47 47 45 45 45 43 43 42 44 47 44 42 41 38 39 33 22 32 35 38 34 34 34 34 31 31 31 30 32 31 31 32 33 34 35 35 34 38 38 37 37 38 38 39 40 42 42 42 41 41 43 43 44 45 46 47 50 50 48 49 49 48 47 46
55 54 54 53 54 55 55 55 55 55 54 54 52 49 49 49 49 49 49 48 47 47 46 44 43 42 42 42 48 48 45 41 39 37 36 37 40 33 31 30 31 32 32 31 31 33 33 32 31 32 31 31 32 33 33 33 33 34 37 36 35 36 37 38 39 41 43 40 39 38 38 40 42 41 42 42 44 46 49 52 52 51 49 47 46
56 55 55 54 54 54 54 54 54 55 55 55 49 46 45 46 49 50 49 48 48 46 45 42 40 39 40 42 43 44 41 40 37 36 35 34 33 35 36 37 38 33 32 32 33 32 32 33 33 33 32 32 32 33 33 32 33 36 36 36 36 37 38 37 36 39 42 38 37 36 36 38 39 38 38 39 42 44 49 51 49 48 48 47 46
56 55 55 54 54 54 54 54 54 54 54 51 47 46 44 43 46 50 49 48 48 46 43 42 40 39 38 40 42 41 36 33 32 32 33 33 33 34 34 34 34 36 37 34 32 31 32 31 32 32 33 32 33 33 33 34 35 35 36 36 36 37 37 36 36 35 39 38 36 35 35 37 38 38 37 38 39 41 46 47 45 46 46 46 46
55 55 56 55 54 54 53 53 52 50 53 50 46 45 44 43 42 47 48 48 46 44 42 41 40 39 38 40 42 42 39 44 43 35 33 34 36 34 34 34 35 35 33 34 36 36 32 32 32 32 32 33 33 35 36 36 36 36 37 37 37 36 35 34 33 33 34 36 35 34 34 35 36 36 37 38 39 40 41 44 46 45 45 45 45
53 53 54 54 53 51 49 47 44 43 42 39 39 41 42 40 42 45 47 45 43 42 42 41 41 40 41 40 40 42 40 41 39 38 38 36 35 35 34 33 33 35 36 36 35 35 36 33 31 31 32 34 33 34 36 37 37 36 36 36 35 34 33 33 33 33 34 37 34 34 34 34 36 37 36 38 40 40 39 42 44 44 45 44 44
48 51 51 50 50 50 49 45 42 40 39 37 37 38 39 39 40 42 43 43 41 43 43 44 42 41 43 43 40 40 42 43 41 39 38 37 37 38 36 35 35 35 35 36 37 36 37 36 34 34 34 35 35 35 36 37 37 37 38 36 35 34 34 34 33 33 33 36 36 36 32 33 34 34 35 37 38 38 38 41 44 44 44 43 43
48 48 48 49 48 48 48 45 41 37 36 36 37 38 38 38 40 43 43 42 42 43 43 42 42 42 41 39 38 39 40 39 40 36 38 38 37 36 36 36 36 36 36 38 38 38 39 38 38 37 37 38 38 38 38 37 36 36 36 36 35 34 33 32 31 32 32 34 35 33 33 33 34 35 34 37 38 38 38 40 42 43 43 42 42
46 46 45 47 48 48 46 44 40 36 36 35 36 37 37 38 40 41 40 40 39 38 40 42 40 40 40 40 40 39 39 38 36 34 36 36 35 35 35 35 35 35 35 37 38 37 37 36 36 36 36 36 36 36 36 36 37 37 36 34 33 33 32 31 32 31 31 33 35 35 33 32 34 35 35 35 35 36 37 38 42 42 42 41 41
45 45 47 45 47 48 46 43 39 36 35 34 35 36 37 38 40 40 40 40 39 39 40 41 41 41 42 45 45 40 38 36 34 34 36 38 36 35 34 34 33 34 34 36 37 37 36 35 35 34 34 34 34 34 34 35 36 37 34 31 32 33 32 32 31 32 32 33 34 35 33 33 33 33 33 34 36 37 37 39 41 40 40 40 40
44 45 44 47 46 44 44 42 42 37 33 33 34 34 36 37 39 38 37 37 37 37 37 37 40 41 38 39 40 38 38 35 33 33 33 34 33 33 32 31 31 30 31 33 33 33 32 32 31 32 32 33 33 32 33 35 35 36 34 32 32 33 31 32 32 32 32 32 35 36 33 33 33 34 34 33 33 35 37 40 40 40 40 39 40